FW4175 Weather Reports


Display with metric or nautical units.
time (UTC)temp
F
wind
direction
speed
MPH
gust
MPH
rain 1hr
in
rain 24hr
in
rain mn
in
humidity
%
barometer
mb
20260904140958 75 2 6.0 10.0 0.00 0.00 0.00 92 1018.1
20260904140453 76 30 7.0 10.0 0.00 0.00 0.00 92 1017.9
20260904135951 76 62 2.0 9.0 0.00 0.00 0.00 92 1018.4
20260904135446 75 35 8.0 14.0 0.00 0.00 0.00 92 1018.2
20260904134943 76 358 2.0 10.0 0.00 0.00 0.00 92 1018.2
20260904134442 76 62 3.0 6.0 0.00 0.00 0.00 92 1018.0
20260904133937 75 24 3.0 7.0 0.00 0.00 0.00 94 1018.1
20260904133432 74 59 5.0 10.0 0.00 0.00 0.00 96 1018.1
20260904132928 73 1 7.0 9.0 0.00 0.00 0.00 97 1018.0
20260904132423 73 342 6.0 9.0 0.00 0.00 0.00 97 1018.0
20260904131922 73 31 3.0 12.0 0.00 0.00 0.00 97 1018.0
20260904131418 72 25 3.0 6.0 0.00 0.00 0.00 98 1018.0
20260904130913 72 328 3.0 5.0 0.00 0.00 0.00 98 1017.9
20260904130412 72 339 4.0 7.0 0.00 0.00 0.00 98 1017.9
20260904125907 72 7 4.0 9.0 0.00 0.00 0.00 98 1017.9
20260904125404 72 350 8.0 8.0 0.00 0.00 0.00 98 1017.8
20260904124903 72 17 2.0 8.0 0.00 0.00 0.00 98 1017.9
20260904124359 71 334 1.0 5.0 0.00 0.00 0.00 98 1017.5
20260904123854 71 11 3.0 6.0 0.00 0.00 0.00 98 1017.6
20260904123350 71 341 3.0 4.0 0.00 0.00 0.00 99 1017.3
20260904122845 71 19 2.0 5.0 0.00 0.00 0.00 99 1017.3
20260904122344 71 31 3.0 3.0 0.00 0.00 0.00 99 1017.3
20260904121839 71 333 0.0 3.0 0.00 0.00 0.00 99 1017.3
20260904121336 70 344 1.0 3.0 0.00 0.00 0.00 99 1017.0
20260904120832 70 0 2.0 3.0 0.00 0.00 0.00 99 1016.7
20260904120327 70 33 0.0 2.0 0.00 0.00 0.00 99 1016.8
20260904115822 70 38 2.0 4.0 0.00 0.00 0.00 99 1016.8
20260904115318 70 13 1.0 6.0 0.00 0.00 0.00 99 1016.3
20260904114818 70 31 2.0 4.0 0.00 0.00 0.00 99 1016.3
20260904114312 70 63 4.0 5.0 0.00 0.00 0.00 99 1016.2
20260904113807 70 12 3.0 5.0 0.00 0.00 0.00 99 1016.2
20260904113306 70 2 2.0 7.0 0.00 0.00 0.00 99 1016.1
20260904112801 71 28 1.0 8.0 0.00 0.00 0.00 99 1016.2
20260904112257 71 330 3.0 10.0 0.00 0.00 0.00 99 1015.8
20260904111753 71 5 2.0 8.0 0.00 0.00 0.00 99 1015.9
20260904111248 71 22 4.0 9.0 0.00 0.00 0.00 99 1015.7
20260904110743 71 14 4.0 11.0 0.00 0.00 0.00 99 1015.8
20260904110242 72 356 5.0 10.0 0.00 0.00 0.00 99 1015.9
20260904105738 72 33 1.0 9.0 0.00 0.00 0.00 99 1015.9
20260904105232 72 306 2.0 5.0 0.00 0.00 0.00 99 1015.6
20260904104728 72 4 0.0 11.0 0.00 0.00 0.00 99 1015.3
20260904104223 72 338 5.0 11.0 0.00 0.00 0.00 99 1015.6
20260904103720 72 350 4.0 5.0 0.00 0.00 0.00 99 1015.6
20260904103215 72 347 2.0 2.0 0.00 0.00 0.00 99 1015.3
20260904102711 72 142 0.0 0.0 0.00 0.00 0.00 99 1015.1
20260904102206 72 124 0.0 1.0 0.00 0.00 0.00 99 1015.2
20260904101703 72 37 0.0 1.0 0.00 0.00 0.00 99 1015.1
20260904101158 73 135 0.0 2.0 0.00 0.00 0.00 99 1015.1
20260904100654 73 136 0.0 2.0 0.00 0.00 0.00 99 1015.2
20260904100149 73 37 0.0 1.0 0.00 0.00 0.00 99 1015.2
20260904095648 73 117 0.0 0.0 0.00 0.00 0.00 99 1015.1
20260904095143 73 326 0.0 2.0 0.00 0.00 0.00 99 1015.3
20260904094639 73 346 0.0 1.0 0.00 0.00 0.00 99 1015.2
20260904094133 73 22 0.0 2.0 0.00 0.00 0.00 99 1015.1
20260904093630 73 333 0.0 2.0 0.00 0.00 0.00 99 1015.2
20260904093129 73 346 3.0 4.0 0.00 0.00 0.00 99 1015.1
20260904092626 73 39 0.0 1.0 0.00 0.00 0.00 99 1014.7
20260904092122 74 189 0.0 1.0 0.00 0.00 0.00 99 1014.9
20260904091618 74 297 0.0 2.0 0.00 0.00 0.00 99 1014.9
20260904091118 74 349 1.0 2.0 0.00 0.00 0.00 99 1015.0
20260904090613 75 142 0.0 3.0 0.00 0.00 0.00 99 1014.8
20260904090108 75 205 2.0 2.0 0.00 0.00 0.00 99 1014.9
20260904085603 75 144 0.0 1.0 0.00 0.00 0.00 99 1015.0
20260904085102 75 322 0.0 2.0 0.00 0.00 0.00 99 1014.7
20260904084558 75 154 0.0 2.0 0.00 0.00 0.00 99 1014.8
20260904084054 75 191 0.0 5.0 0.00 0.00 0.00 99 1014.4
20260904083550 74 171 2.0 5.0 0.00 0.00 0.00 99 1014.8
20260904083046 74 188 2.0 4.0 0.00 0.00 0.00 99 1014.9
20260904082541 74 161 2.0 5.0 0.00 0.00 0.00 99 1014.7
20260904082036 73 171 3.0 5.0 0.00 0.00 0.00 99 1014.8
20260904081531 73 157 3.0 5.0 0.00 0.00 0.00 99 1015.0
20260904081027 73 172 2.0 6.0 0.00 0.00 0.00 99 1015.0
20260904080522 72 157 4.0 5.0 0.00 0.00 0.00 99 1015.3
20260904080019 72 156 3.0 3.0 0.00 0.00 0.00 99 1015.6
20260904075514 72 138 1.0 1.0 0.00 0.00 0.00 99 1015.8
20260904075009 72 346 1.0 2.0 0.00 0.00 0.00 99 1015.8
20260904074503 72 350 0.0 1.0 0.00 0.00 0.00 99 1015.6
20260904073958 72 242 0.0 2.0 0.00 0.00 0.00 99 1015.5
20260904073453 72 243 1.0 1.0 0.00 0.00 0.00 99 1015.3
20260904072949 72 218 0.0 1.0 0.00 0.00 0.00 99 1015.3
20260904072445 72 130 0.0 0.0 0.00 0.00 0.00 99 1015.5
20260904071944 72 130 0.0 1.0 0.00 0.00 0.00 99 1015.3
20260904071440 72 142 0.0 1.0 0.00 0.00 0.00 99 1015.0
20260904070935 72 117 0.0 0.0 0.00 0.00 0.00 99 1015.3
20260904070433 73 89 0.0 2.0 0.00 0.00 0.00 99 1015.2
20260904065928 73 8 0.0 1.0 0.00 0.00 0.00 99 1015.1
20260904065425 73 0 0.0 2.0 0.00 0.00 0.00 99 1015.4
20260904064925 73 343 1.0 2.0 0.00 0.00 0.00 99 1015.0
20260904064421 73 23 1.0 3.0 0.00 0.00 0.00 99 1015.2
20260904063916 73 341 2.0 3.0 0.00 0.00 0.00 99 1015.4
20260904063413 73 353 0.0 4.0 0.00 0.00 0.00 99 1015.2
20260904062907 73 29 1.0 4.0 0.00 0.00 0.00 99 1015.1
20260904062403 73 69 3.0 3.0 0.00 0.00 0.00 99 1015.3
20260904061859 73 150 0.0 4.0 0.00 0.00 0.00 99 1015.2
20260904061355 73 142 4.0 6.0 0.00 0.00 0.00 99 1015.4
20260904060851 73 160 0.0 1.0 0.00 0.00 0.00 99 1015.3
20260904060347 73 135 0.0 2.0 0.00 0.00 0.00 99 1015.5
20260904055842 73 156 3.0 3.0 0.00 0.00 0.00 99 1015.8
20260904055337 73 161 2.0 5.0 0.00 0.00 0.00 99 1015.8
20260904054832 73 154 2.0 3.0 0.00 0.00 0.00 99 1015.9
20260904054328 73 148 1.0 2.0 0.00 0.00 0.00 99 1015.9
20260904053824 73 192 1.0 3.0 0.00 0.00 0.00 99 1016.0
20260904053323 73 221 1.0 2.0 0.00 0.00 0.00 99 1016.0
20260904052819 73 157 0.0 1.0 0.00 0.00 0.00 99 1015.9
20260904052315 73 140 1.0 3.0 0.00 0.00 0.00 99 1016.2
20260904051812 73 134 3.0 4.0 0.00 0.00 0.00 99 1016.3
20260904051307 73 132 1.0 2.0 0.00 0.00 0.00 99 1016.6
20260904050802 73 37 0.0 1.0 0.00 0.00 0.00 99 1016.4
20260904050258 73 345 0.0 2.0 0.00 0.00 0.00 99 1016.7
20260904045753 73 338 1.0 2.0 0.00 0.06 0.06 99 1016.6
20260904045247 73 343 0.0 1.0 0.00 0.06 0.06 99 1016.6
20260904044742 73 50 0.0 1.0 0.00 0.06 0.06 99 1016.2
20260904044239 73 0 0.0 1.0 0.00 0.06 0.06 99 1016.2
20260904043735 73 19 0.0 2.0 0.00 0.06 0.06 99 1016.3
20260904043231 73 37 0.0 0.0 0.00 0.06 0.06 99 1016.1
20260904042726 73 135 0.0 1.0 0.00 0.06 0.06 99 1016.2
20260904042222 73 41 0.0 1.0 0.00 0.06 0.06 99 1016.3
20260904041721 73 180 0.0 2.0 0.00 0.06 0.06 99 1016.3
20260904041218 73 209 0.0 2.0 0.00 0.06 0.06 99 1016.4
20260904040714 73 33 3.0 3.0 0.00 0.06 0.06 99 1016.4
20260904040209 73 339 2.0 3.0 0.00 0.06 0.06 99 1016.7
20260904035705 73 60 2.0 5.0 0.00 0.06 0.06 99 1016.6
20260904035200 73 43 1.0 4.0 0.00 0.06 0.06 99 1016.6
20260904034659 73 52 3.0 4.0 0.00 0.06 0.06 99 1016.7
20260904034155 73 162 1.0 3.0 0.00 0.06 0.06 99 1016.7
20260904033651 73 351 1.0 4.0 0.00 0.06 0.06 98 1016.8
20260904033148 73 3 3.0 4.0 0.00 0.06 0.06 98 1016.8
20260904032643 73 42 0.0 2.0 0.00 0.06 0.06 98 1017.0
20260904032141 73 53 3.0 4.0 0.00 0.06 0.06 98 1017.0
20260904031636 73 271 1.0 4.0 0.00 0.06 0.06 98 1016.9
20260904031132 73 357 1.0 3.0 0.00 0.06 0.06 98 1017.3
20260904030627 73 6 0.0 3.0 0.00 0.06 0.06 98 1017.0
20260904030123 73 345 1.0 2.0 0.00 0.06 0.06 98 1017.2
20260904025618 73 205 0.0 2.0 0.00 0.06 0.06 98 1017.1
20260904025113 73 89 0.0 3.0 0.00 0.06 0.06 98 1017.1
20260904024608 73 9 1.0 4.0 0.00 0.06 0.06 98 1016.8
20260904024104 73 5 1.0 5.0 0.00 0.06 0.06 98 1016.9
20260904023600 73 69 0.0 3.0 0.00 0.06 0.06 98 1016.6
20260904023055 73 142 0.0 1.0 0.00 0.06 0.06 98 1016.8
20260904022550 73 142 0.0 1.0 0.00 0.06 0.06 98 1016.9
20260904022047 73 217 0.0 2.0 0.00 0.06 0.06 98 1016.8
20260904021542 73 26 2.0 4.0 0.00 0.06 0.06 98 1016.8
20260904021037 73 326 0.0 1.0 0.00 0.06 0.06 98 1016.7
20260904020532 74 220 1.0 2.0 0.00 0.06 0.06 97 1016.6
20260904020027 74 334 0.0 3.0 0.00 0.06 0.06 97 1016.4
20260904015521 74 53 0.0 2.0 0.00 0.06 0.06 97 1016.6
20260904015020 74 127 0.0 5.0 0.00 0.06 0.06 97 1016.4
20260904014514 74 155 2.0 2.0 0.00 0.06 0.06 97 1016.6
20260904014010 74 89 0.0 3.0 0.00 0.06 0.06 96 1016.2
20260904013507 74 47 0.0 2.0 0.00 0.06 0.06 96 1016.6
20260904013003 74 334 3.0 3.0 0.00 0.06 0.06 96 1016.1
20260904012502 74 12 2.0 3.0 0.00 0.06 0.06 96 1016.2
20260904011956 74 89 0.0 2.0 0.00 0.06 0.06 95 1016.0
20260904011451 74 65 0.0 2.0 0.00 0.06 0.06 95 1015.9
20260904010946 74 150 0.0 2.0 0.00 0.06 0.06 95 1015.9
20260904010443 75 76 0.0 4.0 0.00 0.06 0.06 94 1016.0
20260904005938 75 154 0.0 1.0 0.00 0.06 0.06 94 1016.0
20260904005433 75 127 1.0 3.0 0.00 0.06 0.06 93 1015.8
20260904004928 75 69 0.0 4.0 0.00 0.06 0.06 93 1015.7
20260904004425 75 351 4.0 4.0 0.00 0.06 0.06 93 1015.8
20260904003924 75 16 3.0 5.0 0.00 0.06 0.06 92 1015.6
20260904003420 76 61 0.0 2.0 0.00 0.06 0.06 92 1015.7
20260904002916 76 142 0.0 1.0 0.00 0.06 0.06 92 1015.4
20260904002412 76 41 1.0 4.0 0.00 0.06 0.06 91 1015.3
20260904001910 76 150 0.0 2.0 0.00 0.06 0.06 91 1015.2
20260904001407 76 89 0.0 2.0 0.00 0.06 0.06 90 1015.2
20260904000906 77 3 1.0 4.0 0.00 0.06 0.06 89 1015.3
20260904000406 77 60 2.0 3.0 0.00 0.06 0.06 89 1015.1
20260903235901 77 117 0.0 3.0 0.00 0.06 0.06 88 1015.0
20260903235357 77 44 3.0 5.0 0.00 0.06 0.06 88 1015.0
20260903234856 78 4 2.0 4.0 0.00 0.06 0.06 87 1015.1
20260903234352 78 67 2.0 5.0 0.00 0.06 0.06 86 1014.8
20260903233848 78 108 0.0 6.0 0.00 0.06 0.06 84 1015.2
20260903233344 80 167 1.0 3.0 0.00 0.06 0.06 82 1015.2
20260903232843 79 344 3.0 8.0 0.00 0.06 0.06 81 1015.2
20260903232339 80 131 2.0 6.0 0.00 0.06 0.06 80 1015.4
20260903231838 80 240 0.0 7.0 0.00 0.06 0.06 79 1015.4
20260903231333 81 177 2.0 7.0 0.00 0.06 0.06 76 1015.6
20260903230829 81 171 2.0 4.0 0.00 0.06 0.06 75 1015.6
20260903230324 82 14 3.0 4.0 0.00 0.06 0.06 72 1015.4
20260903225820 83 289 1.0 7.0 0.00 0.06 0.06 73 1015.4
20260903225316 83 101 1.0 7.0 0.00 0.06 0.06 73 1015.4
20260903224812 84 80 3.0 11.0 0.00 0.06 0.06 74 1015.6
20260903224308 86 74 2.0 7.0 0.00 0.06 0.06 78 1015.5
20260903223804 87 128 2.0 5.0 0.00 0.06 0.06 77 1015.4
20260903223302 87 112 0.0 5.0 0.00 0.06 0.06 76 1015.4
20260903222757 87 135 3.0 5.0 0.00 0.06 0.06 76 1015.0
20260903222256 87 159 4.0 7.0 0.00 0.06 0.06 75 1015.4
20260903221751 87 143 6.0 12.0 0.00 0.06 0.06 75 1015.4
20260903221250 86 143 4.0 10.0 0.00 0.06 0.06 75 1015.2
20260903220748 86 143 7.0 11.0 0.00 0.06 0.06 75 1015.2
20260903220243 86 159 3.0 11.0 0.00 0.06 0.06 76 1015.4
20260903215742 87 148 5.0 6.0 0.00 0.06 0.06 76 1015.4
20260903215238 86 133 7.0 11.0 0.00 0.06 0.06 76 1015.3
20260903214735 85 130 4.0 10.0 0.00 0.06 0.06 77 1015.4
20260903214232 86 136 4.0 7.0 0.00 0.06 0.06 77 1015.3
20260903213726 86 168 4.0 9.0 0.00 0.06 0.06 75 1015.4
20260903213222 85 176 4.0 7.0 0.00 0.06 0.06 80 1015.3
20260903212718 84 152 3.0 8.0 0.00 0.06 0.06 79 1015.3
20260903212215 84 133 4.0 8.0 0.00 0.06 0.06 79 1015.5
20260903211713 84 150 5.0 11.0 0.00 0.06 0.06 79 1015.3
20260903211210 84 123 3.0 7.0 0.00 0.06 0.06 81 1015.5
20260903210706 84 157 4.0 7.0 0.00 0.06 0.06 81 1015.7
20260903210201 84 138 7.0 8.0 0.00 0.06 0.06 80 1015.6
20260903205701 83 135 4.0 6.0 0.00 0.06 0.06 81 1015.7
20260903205200 83 106 1.0 6.0 0.00 0.06 0.06 80 1015.8
20260903204655 83 126 2.0 6.0 0.00 0.06 0.06 80 1016.0
20260903204151 84 113 2.0 8.0 0.00 0.06 0.06 80 1016.1
20260903203647 84 133 3.0 7.0 0.00 0.06 0.06 77 1015.9
20260903203142 85 98 2.0 5.0 0.00 0.06 0.06 79 1016.0
20260903202636 85 109 4.0 8.0 0.00 0.06 0.06 77 1016.2
20260903202132 86 77 3.0 6.0 0.00 0.06 0.06 76 1016.0
20260903201626 86 86 5.0 5.0 0.00 0.06 0.06 75 1016.0
20260903201126 85 95 4.0 6.0 0.00 0.06 0.06 75 1016.0
20260903200621 85 99 3.0 7.0 0.00 0.06 0.06 76 1016.1
20260903200116 86 64 5.0 6.0 0.00 0.06 0.06 74 1016.1
20260903195612 85 145 2.0 5.0 0.00 0.06 0.06 74 1016.3
20260903195107 85 88 2.0 5.0 0.00 0.06 0.06 74 1016.6
20260903194602 85 109 3.0 5.0 0.00 0.06 0.06 76 1016.4
20260903194057 84 134 3.0 4.0 0.00 0.06 0.06 77 1016.7
20260903193553 84 30 0.0 3.0 0.00 0.06 0.06 77 1016.4
20260903193049 84 218 2.0 4.0 0.00 0.06 0.06 78 1016.7
20260903192545 84 7 1.0 6.0 0.00 0.06 0.06 80 1016.7
20260903192040 83 8 4.0 5.0 0.00 0.06 0.06 80 1016.4
20260903191537 83 343 2.0 7.0 0.00 0.06 0.06 79 1017.0
20260903191036 83 254 1.0 5.0 0.00 0.06 0.06 80 1016.7
20260903190536 83 88 0.0 4.0 0.00 0.06 0.06 80 1016.6
20260903190030 82 36 2.0 5.0 0.00 0.06 0.06 81 1016.9
20260903185525 82 129 0.0 5.0 0.00 0.06 0.06 84 1017.0
20260903185020 81 142 5.0 9.0 0.00 0.06 0.06 83 1016.3
20260903184512 80 150 5.0 10.0 0.00 0.06 0.06 85 1016.2
20260903184011 81 127 4.0 10.0 0.00 0.06 0.06 85 1016.3
20260903183511 80 110 2.0 7.0 0.00 0.06 0.06 84 1016.1
20260903183006 80 138 4.0 7.0 0.00 0.06 0.06 85 1016.2
20260903182504 80 126 2.0 6.0 0.00 0.06 0.06 86 1016.2
20260903182000 79 82 0.0 6.0 0.00 0.06 0.06 87 1016.4
20260903181454 80 163 2.0 3.0 0.00 0.06 0.06 87 1016.6
20260903180953 79 274 2.0 2.0 0.00 0.06 0.06 87 1016.7
20260903180449 78 54 1.0 3.0 0.00 0.06 0.06 91 1016.6
20260903175948 77 302 2.0 3.0 0.00 0.06 0.06 91 1016.9
20260903175443 77 1 3.0 4.0 0.00 0.06 0.06 92 1016.9
20260903174941 76 116 0.0 4.0 0.00 0.06 0.06 96 1016.9
20260903174437 75 157 0.0 3.0 0.00 0.06 0.06 98 1016.9
20260903173936 73 332 1.0 6.0 0.00 0.06 0.06 98 1017.0
20260903173432 73 5 2.0 6.0 0.00 0.06 0.06 99 1017.2
20260903172927 73 349 3.0 3.0 0.00 0.06 0.06 99 1017.2
20260903172422 72 354 2.0 5.0 0.00 0.06 0.06 99 1017.3
20260903171918 72 22 2.0 5.0 0.00 0.06 0.06 99 1017.4
20260903171413 72 261 2.0 5.0 0.00 0.06 0.06 99 1017.6
20260903170913 71 295 1.0 5.0 0.02 0.06 0.06 99 1017.6
20260903170408 71 329 1.0 5.0 0.02 0.06 0.06 99 1017.8
20260903165906 71 315 5.0 11.0 0.09 0.06 0.06 99 1017.8
20260903165401 71 353 2.0 11.0 0.07 0.06 0.06 99 1018.1
20260903164855 71 268 2.0 5.0 0.00 0.04 0.04 99 1018.3
20260903164351 71 11 2.0 9.0 0.00 0.04 0.04 99 1018.6
20260903163850 70 297 2.0 6.0 0.00 0.04 0.04 99 1018.1
20260903163347 70 345 12.0 13.0 0.00 0.04 0.04 99 1018.1
20260903162842 71 348 5.0 9.0 0.00 0.04 0.04 98 1018.2
20260903162339 71 321 2.0 5.0 0.00 0.04 0.04 97 1018.6
20260903161834 71 167 1.0 11.0 0.02 0.04 0.04 96 1018.4
20260903161329 72 0 2.0 15.0 0.09 0.04 0.04 97 1018.9
20260903160825 73 309 5.0 13.0 0.24 0.04 0.04 94 1018.8
20260903160324 75 348 6.0 15.0 0.17 0.03 0.03 89 1018.6
20260903155822 77 268 6.0 16.0 0.00 0.00 0.00 83 1018.4
20260903155318 78 315 2.0 7.0 0.00 0.00 0.00 83 1018.3
20260903154813 78 298 5.0 13.0 0.00 0.00 0.00 81 1018.0
20260903154310 79 251 3.0 12.0 0.00 0.00 0.00 84 1018.0
20260903153805 80 245 3.0 5.0 0.00 0.00 0.00 86 1017.7
20260903153301 80 212 0.0 4.0 0.00 0.00 0.00 86 1017.5
20260903152757 80 264 4.0 5.0 0.00 0.00 0.00 85 1017.6
20260903152252 80 253 3.0 5.0 0.00 0.00 0.00 85 1017.5
20260903151752 80 243 2.0 3.0 0.00 0.00 0.00 83 1017.2
20260903151248 80 236 2.0 8.0 0.00 0.00 0.00 83 1017.2
20260903150748 81 319 3.0 7.0 0.00 0.00 0.00 84 1017.5
20260903150242 81 346 4.0 7.0 0.00 0.00 0.00 86 1017.2
20260903145737 81 331 2.0 10.0 0.00 0.00 0.00 85 1017.2
20260903145233 81 337 4.0 8.0 0.00 0.00 0.00 85 1017.3
20260903144731 81 346 3.0 10.0 0.00 0.00 0.00 85 1017.6
20260903144227 82 334 3.0 14.0 0.00 0.00 0.00 84 1017.4
20260903143723 83 268 5.0 8.0 0.00 0.00 0.00 82 1017.3
20260903143219 84 217 2.0 7.0 0.00 0.00 0.00 80 1016.4
20260903142715 84 198 3.0 8.0 0.00 0.00 0.00 79 1016.6
20260903142211 84 162 1.0 9.0 0.00 0.00 0.00 79 1016.4
20260903141706 84 208 3.0 7.0 0.00 0.00 0.00 79 1016.3